Skip Page Navigation
NASA JPL Caltech
NASA Logo - Jet Propulsion Laboratory + View the NASA Portal
+ Near-Earth Object (NEO) Program
Search JPL
JPL Home Earth Solar System Stars & Galaxies Technology
JPL Solar System Dynamics
BODIES ORBITS EPHEMERIDES TOOLS PHYSICAL DATA DISCOVERY FAQ SITE MAP
JPL Small-Body Database Browser
Search: [ help ]  
(2010 TY53)
Classification: TransNeptunian Object          SPK-ID: 3548524
Ephemeris | Orbit Diagram | Orbital Elements | Physical Parameters ]

[ show orbit diagram ]
Orbital Elements at Epoch 2457400.5 (2016-Jan-13.0) TDB
Reference: JPL 6 (heliocentric ecliptic J2000)
 Element Value Uncertainty (1-sigma)   Units 
e .4602491754450123 3.736e-05  
a 38.9161748881659 0.0058432 au
q 21.00503748441365 0.0019765 au
i 22.45405119044236 2.9995e-05 deg
node 111.4196208865907 0.00045905 deg
peri 3.400877284518041 0.010695 deg
M 320.0642728665401 0.011036 deg
tp 2467237.275097737587
(2042-Dec-18.77509774)
0.53703 JED
period 88673.45831343411
242.77
19.971
0.05468
d
yr
n .004059839402310304 9.1436e-07 deg/d
Q 56.82731229191815 0.0085325 au
  Orbit Determination Parameters
   # obs. used (total)      43  
   data-arc span      3990 days (10.92 yr)  
   first obs. used      2004-10-07  
   last obs. used      2015-09-10  
   planetary ephem.      DE431  
   SB-pert. ephem.      SB431-BIG16  
   condition code      3  
   fit RMS      .6724  
   data source      ORB  
   producer      Otto Matic  
   solution date      2015-Oct-05 12:31:42  

Additional Information
 Earth MOID = 20.0217 au 
 Jupiter MOID = 15.762 au 
 T_jup = 4.621 
[ show covariance matrix ]

Ephemeris | Orbit Diagram | Orbital Elements | Physical Parameters ]

Physical Parameter Table
Parameter Symbol Value Units Sigma Reference Notes
absolute magnitude H 5.6 mag n/a MPO349269  
Ephemeris | Orbit Diagram | Orbital Elements | Physical Parameters ]
ABOUT SSD CREDITS/AWARDS PRIVACY/COPYRIGHT GLOSSARY LINKS
FirstGov 2016-Feb-09 09:55 UT
(server date/time)  
NASA Home Page
Site Manager:   Ryan S. Park
Webmaster  Alan B. Chamberlin